Location: Poughquag
(41.6090°N, 73.6820°W)
Time: 01:16:42
(UTC-04:00)

Vanguard 1 Rocket - Pass Details

Date: 31 May 2020
Orbit: 653 x 4224 km, 34.3° (Epoch: 06 July)

Event Time Altitude Azimuth Distance (km) Brightness Sun altitude
Rises 20:45:17 0° 183° (S) 8,416 12.0 -4.4°
Reaches altitude 10° 20:55:47 10° 165° (SSE) 7,370 11.5 -6.0°
Maximum altitude 21:07:15 15° 137° (SE) 6,490 11.1 -7.7°
Drops below altitude 10° 21:17:03 10° 109° (ESE) 6,283 11.1 -9.1°
Sets 21:24:13 0° 90° (E) 6,627 11.4 -10.1°
